Погода в Радивилове

Украина / Ровненская область     50°07′55″N   25°14′57″E
темп.,
°C
ветер,
м/с
пор.,
м/с
влажн.,
%
обл.,
%
осадки,
мм/ч
давл.,
гПа
погр.,
м
11 апреля, вс
вс1100:00+7ю45735 0.0 102374
03:00+6ю35743 0.0 102372
06:00+5ююв36678 0.0 102486
09:00+9ююв595998 0.0 1024255
12:00+13ююв6844100 0.0 1024920
15:00+15ююв78385 0.0 10231335
18:00+15ююв68425 0.0 10221069
21:00+9юв4115894 0.0 1024249
12 апреля, пн
пн1200:00+8юв51355100 0.0 1024372
03:00+6юв4105989 0.0 1024262
06:00+5юв41261100 0.0 1023260
09:00+8ююв4859100 0.0 1023304
12:00+13ююв5648100 0.0 1022530
15:00+16ююв55436 0.0 1020943
18:00+16ююв44485 0.0 10191055
21:00+11ююв34635 0.0 102052
13 апреля, вт
вт1300:00+10ю3360100 0.0 102039
03:00+9ююв335882 0.0 101927
06:00+8юв22625 0.0 101920
09:00+11юв22545 0.0 1019171
12:00+16юв234219 0.0 1018841
15:00+18св223922 0.0 10171752
18:00+17ссв444799 0.0 10151337
21:00+12с597497 0.0 1016313
14 апреля, ср
ср1400:00+9ссв4989100 0.0 1016345
03:00+7ссз4695100 0.0 1015238
06:00+7с4692100 0.0 1014348
09:00+6с4687100 0.0 1014374
12:00+6с5688100 0.9 1014399
15:00+6с4592100 2.6 1014437
18:00+5ссз4592100 0.6 1014383
21:00+5ссз3593100 0.6 1015318
15 апреля, чт
чт1500:00+4ссз3394100 0.1 1015237
03:00+4сз3395100 0.4 1014221
06:00+4сз2396100 1.2 1015203
09:00+4сз2295100 2.0 1015156
12:00+6сз2289100 0.1 1016411
15:00+9зсз3278100 0.1 1016687
18:00+8з3588100 0.6 1015255
21:00+7с3694100 1.8 1016398